Weather in Krasnyy Yar

Russia / Tula Oblast     54°10′38″N   37°53′24″E
temp.,
°C
wind,
m/s
gust,
m/s
humid.,
%
clouds,
%
prec.,
mm/h
press.,
hPa
HPBL,
m
18 april, sun
sun1800:00+8se4794100 8.3 1017533
03:00+7ssw2393100 11.3 1018275
06:00+6se1192100 0.6 101853
09:00+8se117976 0.6 1019541
12:00+11ene336228 0.4 10181068
15:00+10e4673100 1.9 10191140
18:00+8e4689100 5.7 1019522
21:00+8ene4683100 7.7 1019160
19 april, mon
mon1900:00+6ne599547 0.2 1020288
03:00+6ne5995100 0.4 1020361
06:00+6ene61192100 0.1 1020546
09:00+6ene6894100 1.9 1020979
12:00+4ene71196100 1.1 1020758
15:00+2ene71396100 2.3 1021516
18:00+2ene71396100 0.3 1021635
21:00+4e61097100 0.4 1021737
20 april, tue
tue2000:00+3ene61197100 1.1 1020625
03:00+3ene51097100 1.2 1020546
06:00+4e61197100 0.2 1019525
09:00+5e61295100 0.3 1019711
12:00+6e71391100 0.1 1018698
15:00+7e81487100 0.1 1016850
18:00+5ene81693100 1.9 1013979
21:00+4e112094100 8.4 10081070
21 april, wed
wed2100:00+5ese112294100 10.8 10041343
03:00+6ese91894100 12.5 1002790
06:00+8se101792100 0.1 1000847
09:00+8se91691100 0.3 9991034
12:00+5ssw81390100 0.9 1003965
15:00+6ssw91479100 1.0 10061277
18:00+5sw91581100 0.1 10091205
21:00+5sw91576100 0.1 10121223
22 april, thu
thu2200:00+5ssw6128865 0.1 1014532
03:00+5sw5108498 0.1 1016428
06:00+4ssw41087100 0.0 1018306
09:00+7sw4775100 0.0 1020457
12:00+11sw565767 0.1 10211443
15:00+13sw565688 1.4 10211483
18:00+12ssw476890 1.4 1022566
21:00+9s388492 1.6 1023164